Temperature
19 19 19 19 21 24 24 24 24 24 24 23 23 24 24 24 23 22 18 18 18 18 18 18 18 18 18 18 18 18 18 18 18 18 18 18 18 18 18 18 18 18 18 18 18 18 18 18 18
19 19 19 21 23 24 24 24 24 24 23 23 23 23 23 22 21 20 18 18 18 18 18 18 18 18 18 18 18 18 18 18 18 18 18 18 18 18 18 18 18 18 18 18 18 18 18 18 18
19 19 20 23 24 24 24 24 24 23 23 23 23 23 23 21 20 19 18 18 18 18 18 18 18 18 18 18 18 18 17 18 18 18 18 18 18 18 18 18 18 18 18 18 18 18 18 18 18
19 20 21 24 24 24 24 25 24 24 23 23 23 23 21 19 19 19 18 18 18 18 18 18 18 18 18 17 17 17 17 17 17 17 17 17 17 18 18 17 17 17 18 18 18 18 18 18 18
19 22 24 24 24 25 25 24 24 24 24 23 23 23 21 19 19 18 18 18 18 18 17 17 18 18 17 17 17 17 17 17 17 17 17 17 17 17 17 17 17 17 17 18 18 18 18 18 18
21 23 24 24 24 24 25 24 24 24 24 23 23 23 21 19 19 18 18 18 18 18 17 17 18 17 17 17 17 17 17 17 17 17 17 17 17 17 17 17 17 17 17 17 17 17 18 18 18
22 24 24 25 24 24 25 24 24 24 24 23 23 23 21 19 18 18 18 18 18 18 17 17 17 17 17 17 17 17 16 17 17 17 17 17 17 17 17 17 17 17 17 17 17 17 17 17 17
21 24 24 25 24 24 24 24 23 24 24 22 22 23 22 20 19 18 18 18 18 18 17 17 17 17 16 16 16 16 16 16 16 16 16 16 16 16 17 17 17 17 17 17 17 17 17 17 17
21 24 24 25 24 25 24 24 23 22 23 22 22 22 21 20 19 18 18 18 18 18 17 17 17 16 16 16 16 16 16 16 16 16 16 16 16 16 16 16 16 17 17 17 17 17 17 17 17
22 24 25 25 25 25 24 24 23 23 23 23 22 21 20 19 19 19 19 19 18 18 17 17 17 16 16 16 15 15 15 15 15 15 15 15 15 15 15 16 16 16 16 16 17 17 17 17 17
23 24 25 24 24 24 24 24 23 24 24 24 23 21 20 19 19 19 19 19 18 18 17 17 17 16 16 16 15 15 15 15 15 15 15 15 15 15 15 15 15 16 16 16 16 16 16 16 17
24 24 24 24 23 23 24 23 23 23 24 23 23 22 21 20 20 20 19 19 18 18 17 17 17 16 16 16 15 15 15 15 15 14 14 14 15 15 15 15 15 15 15 15 16 16 16 16 16
24 24 23 23 22 23 23 23 23 23 23 22 22 21 21 21 20 20 19 19 18 17 17 17 16 16 16 15 15 15 14 14 14 14 14 14 14 14 15 15 15 15 15 15 15 16 16 16 16
24 23 23 23 23 23 23 24 23 24 23 22 22 21 21 21 20 20 19 19 18 18 17 16 16 15 15 15 15 15 14 14 14 14 14 14 14 14 14 14 14 15 15 15 15 15 15 16 16
23 24 24 24 23 23 23 24 24 24 23 22 22 22 21 21 20 20 19 19 18 18 17 16 16 15 15 15 14 14 14 14 14 14 14 14 14 14 14 14 14 14 14 15 15 15 15 15 16
24 24 24 24 24 23 24 24 25 23 23 23 23 22 21 20 20 20 19 19 18 17 17 16 15 15 15 14 14 14 14 14 13 13 13 13 13 13 13 13 14 14 14 14 14 14 15 15 15
24 24 24 24 24 24 24 25 25 23 23 23 23 22 21 21 20 20 19 18 18 17 17 16 15 15 15 14 14 14 14 13 13 13 13 13 13 13 13 13 13 13 13 14 14 14 15 15 15
24 25 25 25 25 24 24 25 25 23 23 24 23 23 22 22 21 20 19 18 17 17 16 16 15 15 14 14 14 14 13 13 13 13 13 13 13 13 13 13 13 13 13 13 13 14 14 14 15
25 24 25 25 25 24 25 25 26 25 24 24 23 23 23 22 21 19 18 18 17 17 16 16 15 15 14 14 14 13 13 13 13 13 13 12 12 12 12 12 13 13 13 13 13 13 14 14 14
24 24 25 25 24 24 25 25 26 25 24 24 24 24 23 22 21 19 18 17 17 17 16 16 15 14 14 14 13 13 13 13 12 12 12 12 12 12 12 12 12 12 12 12 13 13 13 14 14
24 24 25 24 24 24 24 25 26 25 24 23 22 22 23 22 21 20 18 18 17 16 16 15 15 14 14 13 13 13 13 13 13 12 12 12 12 12 12 12 12 12 12 12 12 13 13 13 14
24 24 24 24 24 25 24 24 26 26 25 24 23 22 22 21 20 19 18 18 17 16 16 15 15 14 14 13 13 13 13 13 12 12 12 12 12 12 12 12 12 12 12 12 12 12 13 13 13
24 23 24 24 24 25 25 25 26 25 25 25 24 23 22 21 20 19 18 18 17 16 16 15 15 14 13 13 13 13 13 12 12 12 12 12 12 12 12 12 12 12 12 12 12 12 12 13 13
23 23 23 24 25 24 25 25 25 26 26 25 24 23 21 20 20 19 18 17 17 16 16 15 14 14 13 13 13 13 12 12 12 12 12 12 12 12 12 12 12 12 12 12 12 12 12 12 13
24 24 24 24 24 24 24 24 25 26 25 25 24 23 22 21 20 19 18 17 17 16 16 15 14 14 13 13 13 13 12 12 12 12 12 12 12 12 12 12 12 12 12 12 12 12 12 12 12
25 25 24 23 24 24 24 24 26 25 24 23 22 22 21 21 20 19 18 18 17 16 16 15 14 14 13 13 13 13 12 12 12 12 12 12 12 12 12 12 12 12 12 12 12 12 12 12 12
24 25 25 25 24 24 25 25 26 25 24 23 23 22 22 21 20 19 18 17 17 16 16 15 14 14 13 13 13 13 13 12 12 12 12 12 12 12 12 12 12 12 12 12 12 12 12 12 12
25 25 24 24 23 24 24 25 25 25 25 25 24 23 22 21 20 19 18 18 17 16 16 15 14 14 14 13 13 13 12 12 12 12 12 12 12 12 12 12 12 12 12 12 12 12 12 12 12
24 24 24 24 24 24 24 25 26 26 25 25 25 23 22 21 20 19 18 18 17 16 16 15 15 14 14 13 13 13 12 12 12 12 12 12 12 12 12 12 12 12 12 12 12 12 12 12 12
25 25 25 24 24 24 24 25 26 25 25 24 24 23 22 21 20 19 19 18 17 17 16 15 15 14 14 13 13 13 13 12 12 12 12 12 12 12 12 12 12 12 12 12 12 12 12 12 12
Wind_Speed
9 7 3 3 3 2 1 1 1 2 3 4 4 3 3 4 4 4 4 5 6 6 6 6 3 2 2 1 1 1 1 2 3 3 4 4 4 4 5 5 5 4 4 4 3 3 3 2 2
8 5 3 3 3 2 2 2 3 3 4 3 3 3 3 5 5 5 5 6 6 6 5 5 4 2 2 2 1 1 2 3 4 4 4 5 5 5 6 6 6 6 6 6 5 5 4 4 3
7 3 3 2 2 0 2 3 4 5 3 1 2 3 3 4 4 4 6 7 6 6 5 6 4 3 3 2 2 2 2 3 4 5 5 5 6 6 7 8 8 8 7 7 7 6 6 5 4
4 3 3 3 2 1 1 3 4 5 3 2 2 4 4 4 3 5 8 7 7 6 5 6 4 4 3 3 3 3 2 3 3 4 5 6 6 6 7 8 8 9 9 9 8 8 8 7 6
3 3 4 3 2 2 2 3 3 2 2 2 2 4 5 5 6 8 8 7 6 6 5 6 6 5 4 4 3 3 3 3 3 4 4 5 5 5 6 7 8 9 9 10 10 10 9 8 7
3 3 3 2 2 3 3 3 3 3 4 4 3 5 5 6 7 7 7 6 6 5 4 5 7 5 5 5 4 4 4 4 4 4 5 5 5 6 6 6 7 8 8 9 10 10 9 9 8
3 3 3 2 2 3 3 4 3 3 3 3 3 4 6 7 7 7 6 6 5 4 4 3 3 3 4 4 5 5 5 5 5 5 4 4 4 4 5 5 6 7 7 8 8 9 9 9 8
3 3 3 2 2 3 4 4 2 2 3 4 2 2 5 9 9 8 6 5 4 3 3 2 2 3 3 3 5 5 5 5 5 4 4 4 5 5 4 6 4 6 6 7 7 7 7 7 8
3 4 3 2 2 3 5 5 4 2 4 4 2 2 6 11 10 8 6 5 4 2 1 2 2 3 3 4 3 3 2 3 4 3 2 5 6 5 5 3 2 4 5 6 6 6 7 7 8
5 4 2 1 1 2 5 5 5 5 5 4 5 6 8 11 10 8 6 5 3 2 1 1 2 3 3 4 4 4 4 4 5 5 5 5 5 5 6 1 3 4 5 6 5 6 7 8 7
5 4 1 2 2 2 4 5 5 5 4 4 6 9 11 11 9 7 6 4 2 1 1 1 2 3 4 3 4 4 4 4 5 5 5 5 5 5 5 4 3 4 5 5 4 7 6 6 6
5 4 3 2 2 4 4 4 5 6 2 2 6 10 12 11 10 8 6 4 3 2 1 1 2 3 4 4 4 4 4 4 5 5 6 5 4 5 4 4 4 4 3 3 4 4 5 6 7
7 3 3 3 4 4 5 5 4 6 5 5 8 10 11 10 9 7 5 4 4 2 2 1 3 4 4 4 4 4 4 5 5 5 6 6 5 5 4 4 3 5 4 4 4 5 5 5 5
5 4 3 3 4 4 5 5 5 5 7 9 10 11 11 10 9 8 7 6 4 3 2 1 2 3 4 4 4 4 5 4 5 5 6 6 5 5 5 5 4 5 5 5 5 5 5 5 5
4 4 4 5 5 4 5 6 7 6 8 10 10 10 10 10 9 8 7 6 4 3 2 1 2 3 4 4 5 4 4 5 5 5 6 6 6 6 5 5 5 5 5 5 5 5 5 5 5
5 6 5 5 5 4 6 5 3 6 9 10 10 10 10 10 9 8 7 5 4 3 2 1 1 3 3 4 4 4 4 5 4 5 5 6 6 6 5 5 5 5 5 5 4 5 5 5 4
6 7 6 4 5 5 7 5 3 5 8 9 9 10 10 10 9 8 7 6 4 4 2 2 1 3 3 3 3 4 4 4 4 5 5 6 6 6 6 5 5 5 4 4 5 4 4 4 4
7 6 5 4 4 6 8 8 4 5 7 8 9 10 10 9 9 8 7 6 5 4 3 2 1 2 3 2 3 3 3 4 4 4 5 6 6 7 6 5 5 5 4 4 4 4 4 4 4
4 5 5 3 2 5 8 9 7 6 8 9 9 10 10 9 7 7 7 6 6 5 3 2 1 1 2 3 3 4 4 4 4 4 5 5 6 6 6 5 5 5 4 4 5 4 4 4 3
6 7 5 2 1 4 7 9 8 7 9 9 9 9 9 8 8 8 8 7 6 4 3 2 1 1 2 2 3 4 4 4 4 4 5 6 6 6 5 6 5 4 4 5 4 4 4 3 2
8 7 5 3 2 4 6 8 7 5 6 7 8 8 8 8 9 9 9 8 6 5 3 2 1 0 1 2 3 3 3 3 3 4 4 5 6 5 5 5 5 5 5 4 4 4 4 3 3
7 4 5 5 6 3 3 6 4 4 6 7 8 8 9 9 8 8 9 8 7 5 3 2 1 1 1 2 3 4 4 5 5 5 5 5 5 5 5 5 5 5 4 4 4 4 4 4 3
2 1 3 4 6 6 6 7 3 3 5 6 6 8 8 9 9 9 9 8 6 5 4 3 2 1 1 2 2 4 4 4 4 5 5 5 5 5 4 5 5 4 4 4 4 4 4 4 4
5 4 3 4 5 6 3 5 4 2 2 3 4 6 8 8 9 9 8 7 6 6 5 4 3 2 1 2 3 3 4 4 5 5 6 5 4 4 4 5 4 4 4 3 3 4 4 4 4
7 6 4 4 4 3 1 5 4 1 1 2 3 4 7 8 9 9 9 9 7 7 6 5 4 3 2 3 3 3 3 4 5 5 5 6 5 5 5 5 5 4 4 4 3 4 4 4 4
7 6 4 4 3 3 3 5 2 1 2 3 4 4 6 8 9 9 9 9 8 8 7 5 4 3 3 3 3 3 3 3 4 5 5 5 5 5 6 6 5 5 4 4 3 3 3 3 4
4 4 3 5 5 5 3 3 4 3 4 5 5 6 7 8 9 9 9 9 8 8 7 6 5 4 3 3 3 3 3 3 4 5 5 5 5 5 6 5 5 4 4 3 3 3 3 3 3
2 2 3 4 4 5 4 5 3 2 3 5 6 7 7 8 9 9 9 9 8 7 7 6 5 4 3 3 3 2 3 3 4 5 5 5 6 5 5 5 4 4 3 3 2 3 3 3 3
5 4 4 4 4 6 5 3 1 3 3 4 5 6 7 8 9 9 9 9 8 8 7 7 6 5 4 4 3 3 3 3 4 4 4 5 5 5 4 4 4 4 3 2 2 2 3 3 3
5 5 7 6 5 5 7 5 1 4 4 5 6 6 7 8 9 9 9 9 9 9 8 7 7 6 5 4 3 3 3 3 3 3 4 4 4 4 4 4 4 4 4 3 2 2 2 3 3
Wind_Direction
161 165 191 221 230 212 113 83 67 85 78 60 53 56 50 37 18 56 81 103 113 121 125 133 124 118 116 108 70 16 349 329 299 273 247 243 241 240 242 242 245 246 249 251 253 256 259 265 275
156 164 210 238 242 177 112 95 95 71 92 92 75 70 71 68 57 81 96 103 112 114 117 107 93 76 66 48 26 356 345 336 319 306 289 271 261 258 259 257 253 250 250 251 253 254 257 262 268
155 194 238 234 231 157 106 101 95 101 104 87 80 62 53 72 76 91 101 115 114 109 110 94 78 68 59 41 28 13 355 339 323 321 314 297 281 272 267 264 258 255 254 256 257 255 253 257 263
180 212 232 235 178 104 98 114 121 127 114 84 109 96 86 66 79 103 116 122 117 110 103 92 78 74 67 56 44 28 6 354 334 324 320 314 299 286 277 271 263 261 260 257 256 253 251 253 254
218 245 234 207 153 129 137 130 146 145 118 117 122 103 100 96 106 118 122 123 118 111 100 92 76 60 55 47 35 15 4 346 326 315 317 316 306 292 283 278 272 267 264 263 261 259 252 250 248
217 244 249 215 148 146 152 161 161 140 124 133 134 117 105 123 128 127 126 123 113 110 105 95 90 67 52 35 20 10 0 346 330 316 310 309 302 290 281 274 271 270 270 268 265 264 260 254 249
246 250 270 271 167 160 148 159 176 157 143 133 139 122 126 143 140 138 133 126 117 111 103 85 78 86 88 55 26 9 359 350 341 333 314 303 295 288 287 276 267 266 270 270 266 263 261 254 250
258 258 250 242 199 153 145 158 155 181 125 117 157 136 136 152 151 146 141 135 128 117 99 75 56 29 13 30 53 16 6 358 347 340 333 310 265 248 254 262 262 267 264 267 268 260 260 257 250
232 243 244 221 196 149 161 172 155 151 145 145 154 81 115 142 154 157 156 155 147 130 95 52 25 19 5 352 18 343 347 349 307 289 291 280 283 279 252 271 284 281 273 264 259 255 255 255 240
217 247 245 184 196 154 173 185 166 174 176 170 156 140 139 154 166 169 171 168 164 152 101 30 2 359 352 346 341 332 332 338 327 329 321 304 304 299 296 207 242 260 260 246 242 249 247 246 242
217 245 235 191 188 176 178 184 187 198 205 196 173 160 161 168 174 178 180 177 171 161 123 354 342 350 345 342 336 335 331 332 325 332 323 308 301 293 291 293 254 254 257 261 236 238 237 237 239
219 235 237 208 174 191 191 181 195 216 209 142 157 157 166 176 179 183 187 185 182 190 217 329 331 335 340 341 340 324 328 333 333 334 330 319 312 304 307 297 307 295 282 282 274 260 245 240 239
219 216 210 212 204 206 196 199 214 222 203 168 160 168 176 181 182 184 188 189 195 199 222 304 322 332 337 342 326 326 333 331 332 331 324 324 313 308 306 297 302 296 295 283 275 269 261 249 241
204 205 213 213 203 200 205 213 219 217 182 176 177 182 185 186 189 188 193 201 206 208 222 260 309 328 325 328 327 337 332 325 322 327 325 322 318 311 309 300 298 299 298 295 285 274 269 259 247
180 200 209 207 205 195 206 226 222 202 181 185 188 188 189 193 196 203 203 206 210 212 225 266 307 317 321 327 333 331 325 326 326 327 323 322 319 313 309 307 304 302 296 289 284 282 276 264 249
193 212 217 188 196 191 218 239 180 181 192 197 196 192 197 201 208 209 205 207 205 212 227 255 303 314 323 325 319 324 327 330 326 325 322 321 317 315 311 307 306 308 302 294 285 277 274 268 260
204 221 221 189 194 200 225 253 154 180 202 207 203 202 204 205 210 206 203 206 206 213 223 243 301 314 325 326 315 321 324 329 325 326 329 323 318 315 312 309 308 309 303 295 291 286 281 275 270
206 221 228 225 184 213 234 253 231 197 217 222 214 212 211 213 207 200 199 202 203 210 215 227 275 313 333 330 324 327 324 325 327 329 331 326 318 315 311 301 302 305 297 294 290 289 279 277 274
218 234 248 264 194 230 249 260 258 227 222 226 221 218 218 215 200 189 190 192 198 200 210 210 271 332 335 340 329 328 332 328 329 332 332 322 317 315 308 302 303 301 298 296 291 288 276 269 273
234 247 256 264 177 243 267 271 265 239 231 232 231 222 216 207 195 186 189 188 197 194 202 216 253 326 340 348 330 325 323 320 329 327 329 330 326 320 308 302 299 293 289 286 285 281 283 274 258
234 246 258 275 242 227 277 270 246 218 220 224 228 229 218 205 202 191 190 188 189 192 194 202 247 270 338 336 326 318 315 303 322 334 337 335 330 324 313 305 302 297 289 285 279 272 267 271 259
233 247 249 250 256 257 262 286 256 209 220 220 217 212 208 199 199 191 189 190 189 186 185 198 197 257 317 311 323 332 328 332 337 333 332 329 331 330 320 307 300 298 294 284 273 265 257 255 255
229 108 221 245 259 268 244 270 261 186 224 206 201 202 199 195 194 190 190 188 186 178 180 192 198 229 287 312 322 310 321 329 328 329 331 329 338 335 327 317 308 304 295 287 281 275 263 251 253
154 162 168 213 248 259 258 261 273 197 210 180 180 187 191 188 186 187 183 183 181 175 178 187 202 210 247 280 287 306 323 323 326 330 333 333 337 336 339 326 312 304 296 282 274 268 258 256 252
204 228 233 227 230 261 168 257 266 30 248 239 208 185 184 183 184 184 183 186 183 183 185 192 203 215 233 267 285 307 314 313 319 326 331 329 333 338 340 331 318 313 301 285 271 262 256 248 248
209 239 264 286 287 297 225 249 277 115 246 245 228 201 187 185 187 187 187 187 187 188 190 199 207 218 230 261 285 300 305 303 319 321 322 324 329 330 330 326 323 315 306 291 268 267 257 250 245
191 218 295 289 291 281 257 262 276 200 220 210 202 194 193 190 189 190 188 189 188 190 192 199 206 215 226 250 272 289 304 307 313 314 317 321 322 322 325 326 326 323 311 296 272 256 256 250 245
304 170 203 251 281 284 280 273 270 226 214 201 203 203 196 191 191 191 189 190 190 190 191 194 205 215 222 241 259 283 296 301 307 313 323 324 325 326 326 329 335 333 325 310 285 265 266 254 242
175 195 230 251 274 288 296 304 336 268 244 224 213 208 201 196 194 191 189 190 188 189 190 194 200 210 221 234 246 263 281 294 300 311 321 324 326 328 331 338 339 340 342 335 305 276 258 253 250
239 236 229 257 260 261 285 293 133 238 246 239 232 216 206 201 197 192 189 186 188 193 196 199 202 206 212 226 240 260 278 281 291 308 318 325 331 334 336 342 343 350 345 340 333 313 276 255 255
Height
1519 1519 1520 1521 1519 1515 1515 1513 1510 1511 1511 1514 1514 1513 1513 1515 1518 1525 1526 1524 1525 1526 1527 1528 1529 1529 1530 1530 1531 1531 1531 1531 1532 1532 1531 1531 1531 1531 1531 1532 1531 1531 1531 1531 1531 1530 1530 1530 1529
1519 1519 1522 1521 1516 1517 1516 1511 1511 1512 1514 1516 1516 1516 1516 1519 1522 1524 1524 1525 1526 1527 1528 1529 1529 1529 1530 1530 1530 1530 1530 1530 1530 1530 1530 1530 1530 1530 1530 1531 1530 1530 1530 1530 1530 1530 1529 1529 1529
1519 1519 1521 1517 1514 1514 1515 1511 1512 1514 1516 1516 1517 1518 1519 1522 1524 1525 1525 1526 1527 1528 1529 1529 1529 1529 1529 1529 1529 1529 1529 1529 1528 1528 1528 1528 1528 1528 1529 1529 1529 1529 1529 1529 1529 1529 1529 1528 1528
1520 1521 1520 1515 1514 1511 1510 1511 1513 1515 1517 1517 1517 1519 1522 1525 1525 1526 1526 1527 1528 1529 1529 1529 1529 1529 1529 1528 1528 1528 1528 1527 1527 1526 1526 1526 1526 1526 1527 1527 1527 1527 1528 1528 1528 1528 1528 1527 1527
1520 1519 1515 1513 1511 1510 1510 1512 1514 1513 1515 1517 1518 1519 1523 1526 1526 1526 1527 1528 1529 1529 1529 1529 1529 1528 1528 1528 1527 1527 1526 1526 1525 1525 1524 1524 1524 1524 1524 1524 1525 1525 1525 1525 1526 1526 1526 1526 1526
1520 1516 1514 1514 1511 1510 1511 1513 1514 1514 1516 1518 1519 1520 1524 1526 1527 1528 1528 1529 1530 1530 1530 1530 1528 1528 1527 1527 1526 1526 1525 1524 1524 1523 1523 1522 1522 1522 1522 1522 1522 1522 1523 1523 1524 1524 1524 1524 1524
1519 1514 1512 1510 1511 1511 1511 1513 1514 1514 1516 1518 1520 1520 1524 1527 1527 1528 1529 1529 1530 1530 1530 1530 1529 1528 1527 1526 1525 1524 1524 1523 1522 1522 1521 1520 1520 1520 1520 1520 1520 1520 1520 1520 1521 1521 1522 1522 1522
1517 1514 1511 1509 1511 1511 1512 1513 1515 1516 1517 1520 1521 1520 1523 1527 1527 1528 1529 1530 1530 1530 1530 1530 1529 1528 1528 1527 1524 1523 1522 1521 1520 1520 1519 1519 1518 1518 1517 1517 1517 1517 1517 1518 1518 1519 1519 1520 1520
1516 1515 1512 1509 1510 1509 1512 1513 1516 1517 1518 1520 1521 1522 1524 1525 1527 1528 1530 1530 1531 1531 1530 1530 1529 1528 1526 1526 1524 1522 1521 1520 1519 1518 1517 1517 1517 1517 1516 1515 1514 1514 1514 1514 1515 1516 1516 1517 1518
1515 1512 1508 1507 1507 1508 1511 1512 1514 1516 1517 1519 1521 1523 1524 1525 1527 1528 1529 1530 1531 1531 1530 1529 1528 1527 1526 1525 1523 1522 1521 1519 1518 1517 1516 1516 1515 1514 1514 1512 1512 1511 1511 1512 1512 1513 1514 1514 1515
1511 1508 1506 1508 1509 1510 1511 1513 1515 1515 1515 1516 1519 1522 1524 1525 1527 1528 1529 1530 1530 1530 1529 1529 1528 1527 1525 1524 1522 1521 1519 1518 1517 1515 1514 1513 1513 1513 1512 1511 1511 1510 1509 1510 1509 1510 1511 1512 1513
1509 1507 1508 1508 1510 1511 1511 1513 1514 1514 1515 1517 1518 1521 1523 1525 1526 1527 1528 1529 1529 1529 1529 1528 1527 1526 1525 1523 1521 1519 1518 1517 1516 1514 1513 1512 1511 1511 1510 1510 1509 1508 1508 1507 1508 1508 1509 1509 1510
1507 1507 1509 1509 1510 1511 1512 1513 1513 1513 1515 1517 1518 1520 1522 1524 1525 1526 1527 1528 1528 1528 1528 1527 1526 1525 1524 1522 1520 1519 1517 1516 1515 1512 1511 1511 1510 1509 1509 1508 1507 1507 1506 1506 1506 1506 1506 1507 1508
1506 1507 1508 1509 1509 1510 1510 1511 1513 1512 1514 1516 1517 1519 1521 1522 1524 1525 1526 1527 1527 1527 1527 1526 1525 1524 1522 1521 1520 1518 1516 1514 1513 1511 1510 1509 1508 1507 1506 1506 1505 1505 1504 1504 1504 1504 1504 1504 1505
1506 1506 1506 1507 1508 1509 1510 1509 1508 1510 1512 1514 1516 1518 1519 1521 1522 1524 1525 1525 1526 1526 1526 1525 1524 1523 1521 1520 1518 1517 1515 1514 1512 1510 1509 1508 1507 1506 1505 1504 1503 1503 1502 1502 1502 1502 1502 1502 1502
1504 1504 1506 1504 1506 1508 1510 1508 1505 1508 1510 1512 1514 1515 1518 1519 1521 1522 1523 1524 1524 1524 1524 1523 1522 1521 1520 1518 1517 1516 1514 1512 1511 1509 1508 1507 1505 1504 1503 1502 1501 1500 1500 1500 1499 1499 1500 1500 1500
1503 1505 1504 1504 1504 1505 1506 1504 1504 1507 1508 1509 1511 1513 1515 1517 1519 1520 1521 1522 1523 1523 1523 1522 1521 1520 1519 1517 1516 1514 1513 1511 1510 1508 1506 1505 1504 1503 1502 1500 1499 1499 1498 1497 1497 1498 1497 1497 1497
1504 1502 1502 1502 1502 1504 1504 1501 1501 1505 1506 1506 1508 1510 1512 1514 1516 1518 1519 1520 1520 1521 1521 1521 1519 1519 1518 1516 1515 1514 1512 1510 1509 1507 1505 1503 1502 1501 1499 1498 1498 1497 1496 1495 1495 1495 1495 1495 1495
1497 1500 1501 1500 1500 1503 1501 1498 1497 1500 1503 1504 1505 1507 1509 1511 1514 1515 1516 1517 1518 1519 1519 1519 1519 1518 1516 1516 1514 1513 1512 1510 1508 1506 1503 1501 1500 1498 1497 1496 1495 1494 1494 1493 1493 1493 1493 1493 1493
1499 1501 1501 1500 1501 1501 1499 1496 1493 1496 1499 1500 1501 1503 1505 1509 1511 1513 1514 1515 1517 1517 1518 1518 1517 1517 1516 1514 1513 1511 1510 1508 1506 1504 1502 1500 1498 1496 1495 1494 1493 1492 1491 1491 1491 1491 1491 1492 1492
1499 1500 1500 1501 1502 1500 1501 1496 1491 1492 1496 1498 1500 1501 1503 1506 1508 1511 1512 1514 1515 1516 1516 1516 1516 1515 1514 1513 1512 1510 1509 1507 1506 1504 1501 1499 1496 1495 1493 1492 1491 1490 1490 1489 1489 1489 1489 1490 1490
1500 1497 1499 1501 1502 1500 1502 1503 1489 1488 1492 1494 1496 1499 1501 1504 1506 1508 1510 1512 1513 1514 1514 1515 1514 1514 1513 1512 1511 1510 1508 1507 1505 1503 1500 1498 1495 1493 1492 1490 1489 1489 1488 1487 1487 1487 1487 1488 1488
1498 1499 1499 1500 1500 1500 1498 1500 1488 1488 1489 1489 1492 1496 1499 1501 1504 1506 1508 1510 1512 1512 1513 1513 1513 1513 1512 1511 1509 1508 1508 1506 1504 1502 1499 1497 1495 1492 1491 1489 1488 1487 1486 1485 1485 1485 1486 1486 1487
1500 1501 1501 1500 1498 1506 1498 1500 1494 1484 1485 1487 1490 1494 1497 1499 1502 1504 1506 1508 1509 1510 1511 1511 1511 1511 1510 1509 1508 1508 1506 1504 1503 1501 1499 1497 1495 1492 1490 1488 1487 1486 1485 1484 1484 1484 1484 1484 1485
1499 1500 1506 1507 1507 1503 1497 1500 1492 1483 1485 1487 1489 1492 1495 1497 1500 1502 1504 1506 1507 1508 1509 1509 1510 1509 1509 1508 1508 1507 1505 1504 1502 1500 1498 1496 1494 1492 1489 1487 1485 1484 1483 1482 1482 1482 1482 1483 1483
1494 1495 1506 1513 1510 1500 1498 1497 1485 1484 1487 1488 1490 1491 1493 1496 1498 1500 1502 1504 1505 1506 1507 1508 1508 1508 1508 1507 1507 1506 1504 1503 1501 1499 1497 1496 1494 1491 1489 1486 1485 1483 1481 1481 1480 1480 1481 1481 1482
1495 1494 1493 1497 1500 1503 1493 1489 1482 1482 1484 1486 1488 1490 1492 1494 1496 1498 1500 1501 1503 1504 1505 1506 1506 1507 1506 1506 1505 1505 1503 1502 1500 1499 1497 1495 1493 1491 1488 1486 1484 1482 1480 1480 1479 1479 1480 1480 1480
1493 1491 1496 1499 1508 1506 1498 1491 1486 1480 1480 1482 1485 1487 1490 1492 1494 1496 1498 1499 1501 1502 1503 1504 1504 1505 1505 1504 1504 1503 1502 1501 1499 1498 1496 1494 1493 1490 1488 1486 1484 1482 1480 1479 1478 1478 1478 1479 1479
1495 1496 1494 1494 1497 1504 1504 1493 1477 1478 1478 1480 1482 1485 1487 1489 1491 1493 1495 1497 1498 1500 1501 1502 1502 1503 1503 1503 1503 1502 1501 1500 1499 1497 1495 1493 1492 1490 1488 1486 1484 1482 1480 1479 1478 1478 1477 1478 1478
1489 1488 1491 1497 1496 1497 1499 1491 1475 1477 1478 1480 1481 1483 1485 1487 1489 1491 1492 1494 1496 1497 1499 1500 1501 1501 1501 1501 1501 1501 1500 1499 1498 1497 1495 1493 1492 1490 1488 1486 1484 1482 1480 1479 1478 1477 1477 1477 1477